NW5W-12 Weather Reports


time (UTC)temp
C
wind
direction
speed
KPH
gust
KPH
rain 1hr
cm
rain 24hr
cm
rain mn
cm
humidity
%
barometer
mb
20260508203042 19 326 22.5 35.4 0.00 0.00 0.00 23 1018.7
20260508202542 20 312 14.5 35.4 0.00 0.00 0.00 23 1018.7
20260508202042 19 333 11.3 38.6 0.00 0.00 0.00 23 1018.8
20260508201542 19 351 8.0 38.6 0.00 0.00 0.00 24 1018.7
20260508201042 20 314 25.7 37.0 0.00 0.00 0.00 24 1018.7
20260508200542 20 302 20.9 37.0 0.00 0.00 0.00 24 1018.8
20260508200043 19 312 9.7 32.2 0.00 0.00 0.00 25 1018.8
20260508195542 19 321 4.8 35.4 0.00 0.00 0.00 25 1018.8
20260508195042 19 316 9.7 35.4 0.00 0.00 0.00 27 1018.8
20260508194542 18 352 12.9 33.8 0.00 0.00 0.00 26 1018.8
20260508194042 18 344 20.9 33.8 0.00 0.00 0.00 25 1018.8
20260508193542 18 25 16.1 32.2 0.00 0.00 0.00 27 1018.7
20260508193042 18 353 24.1 32.2 0.00 0.00 0.00 25 1018.7
20260508192542 18 322 16.1 30.6 0.00 0.00 0.00 25 1018.8
20260508192042 18 346 12.9 27.4 0.00 0.00 0.00 26 1018.8
20260508191542 19 297 8.0 29.0 0.00 0.00 0.00 26 1018.8
20260508190542 19 107 8.0 32.2 0.00 0.00 0.00 26 1018.8
20260508190042 18 305 14.5 35.4 0.00 0.00 0.00 27 1018.9
20260508185542 18 342 19.3 35.4 0.00 0.00 0.00 26 1018.9
20260508185042 19 352 8.0 25.7 0.00 0.00 0.00 28 1019.0
20260508184542 19 342 9.7 25.7 0.00 0.00 0.00 28 1019.1
20260508184042 19 357 12.9 25.7 0.00 0.00 0.00 27 1019.2
20260508183542 18 334 16.1 27.4 0.00 0.00 0.00 29 1019.2
20260508183042 19 331 12.9 27.4 0.00 0.00 0.00 28 1019.2
20260508182542 19 277 11.3 30.6 0.00 0.00 0.00 30 1019.2
20260508182042 18 315 19.3 30.6 0.00 0.00 0.00 30 1019.2
20260508181542 18 2 11.3 30.6 0.00 0.00 0.00 31 1019.3
20260508181043 18 280 12.9 27.4 0.00 0.00 0.00 30 1019.3
20260508180542 18 302 14.5 27.4 0.00 0.00 0.00 32 1019.3
20260508180042 18 343 6.4 24.1 0.00 0.00 0.00 29 1019.3
20260508175543 18 326 14.5 24.1 0.00 0.00 0.00 31 1019.4
20260508175042 18 319 16.1 27.4 0.00 0.00 0.00 30 1019.4
20260508174542 18 353 11.3 27.4 0.00 0.00 0.00 30 1019.4
20260508174042 18 326 19.3 27.4 0.00 0.00 0.00 29 1019.4
20260508173542 18 318 17.7 25.7 0.00 0.00 0.00 32 1019.5
20260508173042 18 325 20.9 25.7 0.00 0.00 0.00 29 1019.5
20260508172542 18 326 14.5 22.5 0.00 0.00 0.00 28 1019.5
20260508172042 18 297 11.3 24.1 0.00 0.00 0.00 28 1019.4
20260508171542 18 339 9.7 25.7 0.00 0.00 0.00 27 1019.4
20260508171042 18 334 12.9 25.7 0.00 0.00 0.00 27 1019.4
20260508170542 18 291 9.7 22.5 0.00 0.00 0.00 29 1019.3
20260508170042 18 322 16.1 22.5 0.00 0.00 0.00 27 1019.3
20260508165542 18 318 11.3 22.5 0.00 0.00 0.00 32 1019.3
20260508165042 18 309 14.5 22.5 0.00 0.00 0.00 31 1019.3
20260508164542 18 334 9.7 19.3 0.00 0.00 0.00 31 1019.3
20260508164042 18 313 3.2 19.3 0.00 0.00 0.00 32 1019.3
20260508163542 17 310 11.3 16.1 0.00 0.00 0.00 36 1019.3
20260508163042 17 337 9.7 16.1 0.00 0.00 0.00 33 1019.3
20260508162542 17 326 6.4 14.5 0.00 0.00 0.00 33 1019.2
20260508162042 17 318 12.9 14.5 0.00 0.00 0.00 34 1019.2
20260508161542 17 306 9.7 16.1 0.00 0.00 0.00 32 1019.2
20260508161042 17 308 11.3 16.1 0.00 0.00 0.00 33 1019.2
20260508155542 16 336 8.0 14.5 0.00 0.00 0.00 33 1019.1
20260508154545 16 354 4.8 12.9 0.00 0.00 0.00 33 1019.0
20260508154043 16 333 1.6 11.3 0.00 0.00 0.00 34 1019.0
20260508153042 16 356 6.4 11.3 0.00 0.00 0.00 33 1019.0
20260508152044 16 306 6.4 9.7 0.00 0.00 0.00 34 1019.0
20260508151042 15 295 1.6 9.7 0.00 0.00 0.00 37 1018.9
20260508150542 15 307 4.8 9.7 0.00 0.00 0.00 38 1018.8
20260508150043 15 338 3.2 8.0 0.00 0.00 0.00 40 1018.8
20260508144042 13 336 1.6 9.7 0.00 0.00 0.00 42 1018.8
20260508143543 13 305 1.6 9.7 0.00 0.00 0.00 42 1018.8
20260508143042 13 297 3.2 8.0 0.00 0.00 0.00 43 1018.7
20260508142542 12 295 3.2 9.7 0.00 0.00 0.00 43 1018.7
20260508142042 12 298 6.4 9.7 0.00 0.00 0.00 43 1018.7
20260508141542 12 296 6.4 9.7 0.00 0.00 0.00 44 1018.6
20260508141042 12 279 3.2 9.7 0.00 0.00 0.00 45 1018.6
20260508140542 12 302 4.8 8.0 0.00 0.00 0.00 45 1018.5
20260508135042 11 332 4.8 8.0 0.00 0.00 0.00 46 1018.5
20260508134042 11 294 1.6 6.4 0.00 0.00 0.00 46 1018.4
20260508132542 11 332 3.2 6.4 0.00 0.00 0.00 45 1018.3
20260508132042 11 344 3.2 6.4 0.00 0.00 0.00 45 1018.3
20260508131542 11 323 4.8 9.7 0.00 0.00 0.00 45 1018.2
20260508130543 11 327 6.4 9.7 0.00 0.00 0.00 44 1018.1
20260508130042 11 332 6.4 8.0 0.00 0.00 0.00 46 1018.1
20260508125544 11 328 3.2 6.4 0.00 0.00 0.00 46 1018.1
20260508125043 11 13 0.0 6.4 0.00 0.00 0.00 46 1018.0
20260508124542 11 291 0.0 11.3 0.00 0.00 0.00 45 1018.0
20260508123543 11 347 1.6 9.7 0.00 0.00 0.00 45 1017.9
20260508123042 11 323 6.4 9.7 0.00 0.00 0.00 44 1017.8
20260508122042 11 344 3.2 8.0 0.00 0.00 0.00 43 1017.8
20260508121042 11 330 3.2 11.3 0.00 0.00 0.00 41 1017.7
20260508120542 11 324 4.8 11.3 0.00 0.00 0.00 42 1017.7
20260508120042 11 339 6.4 11.3 0.00 0.00 0.00 42 1017.8
20260508115542 11 325 6.4 11.3 0.00 0.00 0.00 42 1017.8
20260508115042 11 323 6.4 9.7 0.00 0.00 0.00 42 1017.8
20260508114542 11 309 4.8 11.3 0.00 0.00 0.00 42 1017.7
20260508114042 12 314 4.8 11.3 0.00 0.00 0.00 41 1017.7
20260508113542 12 303 6.4 11.3 0.00 0.00 0.00 41 1017.7
20260508113042 12 328 6.4 9.7 0.00 0.00 0.00 41 1017.6
20260508112542 12 319 4.8 9.7 0.00 0.00 0.00 41 1017.6
20260508112042 12 311 4.8 8.0 0.00 0.00 0.00 40 1017.6
20260508111542 12 311 4.8 8.0 0.00 0.00 0.00 39 1017.5
20260508111042 12 314 6.4 8.0 0.00 0.00 0.00 39 1017.6
20260508110542 12 309 4.8 8.0 0.00 0.00 0.00 39 1017.6
20260508110042 12 312 4.8 8.0 0.00 0.00 0.00 39 1017.5
20260508105542 12 307 6.4 8.0 0.00 0.00 0.00 39 1017.5
20260508105042 12 316 4.8 8.0 0.00 0.00 0.00 39 1017.5
20260508104542 12 318 1.6 8.0 0.00 0.00 0.00 39 1017.5
20260508104042 12 310 4.8 8.0 0.00 0.00 0.00 38 1017.5
20260508103542 12 309 4.8 8.0 0.00 0.00 0.00 38 1017.5
20260508103042 12 335 6.4 11.3 0.00 0.00 0.00 38 1017.5
20260508102542 12 327 3.2 11.3 0.00 0.00 0.00 37 1017.5
20260508102042 12 327 4.8 11.3 0.00 0.00 0.00 37 1017.5
20260508101542 12 327 4.8 11.3 0.00 0.00 0.00 38 1017.4
20260508101042 12 326 8.0 11.3 0.00 0.00 0.00 38 1017.4
20260508100542 12 327 6.4 12.9 0.00 0.00 0.00 37 1017.4
20260508100042 12 327 6.4 12.9 0.00 0.00 0.00 38 1017.4
20260508095542 12 328 8.0 9.7 0.00 0.00 0.00 38 1017.4
20260508095042 12 331 4.8 9.7 0.00 0.00 0.00 38 1017.4
20260508094542 11 322 4.8 9.7 0.00 0.00 0.00 39 1017.4
20260508094042 11 301 3.2 8.0 0.00 0.00 0.00 40 1017.4
20260508093542 12 299 1.6 8.0 0.00 0.00 0.00 40 1017.3
20260508093042 12 307 1.6 8.0 0.00 0.00 0.00 39 1017.3
20260508092542 12 315 4.8 9.7 0.00 0.00 0.00 39 1017.3
20260508092042 12 320 4.8 9.7 0.00 0.00 0.00 40 1017.3
20260508091542 11 304 4.8 8.0 0.00 0.00 0.00 40 1017.3
20260508091042 12 305 3.2 6.4 0.00 0.00 0.00 40 1017.3
20260508090542 12 312 1.6 6.4 0.00 0.00 0.00 39 1017.3
20260508090042 12 309 3.2 9.7 0.00 0.00 0.00 38 1017.3
20260508085542 13 268 1.6 11.3 0.00 0.00 0.00 37 1017.3
20260508085042 13 297 8.0 11.3 0.00 0.00 0.00 36 1017.4
20260508084542 13 315 6.4 11.3 0.00 0.00 0.00 34 1017.3
20260508084042 13 306 8.0 9.7 0.00 0.00 0.00 34 1017.3
20260508083542 13 308 6.4 9.7 0.00 0.00 0.00 34 1017.4
20260508083042 13 310 6.4 12.9 0.00 0.00 0.00 34 1017.4
20260508082543 13 327 4.8 12.9 0.00 0.00 0.00 34 1017.4
20260508082042 13 330 8.0 11.3 0.00 0.00 0.00 35 1017.4
20260508081542 13 314 6.4 9.7 0.00 0.00 0.00 35 1017.4
20260508081042 13 312 6.4 8.0 0.00 0.00 0.00 36 1017.4
20260508080542 13 314 4.8 8.0 0.00 0.00 0.00 36 1017.4
20260508080042 13 318 3.2 6.4 0.00 0.00 0.00 35 1017.4
20260508075542 13 313 4.8 6.4 0.00 0.00 0.00 36 1017.4
20260508075042 13 317 4.8 6.4 0.00 0.00 0.00 35 1017.4
20260508074542 13 320 3.2 6.4 0.00 0.00 0.00 36 1017.4
20260508074042 13 326 3.2 6.4 0.00 0.00 0.00 36 1017.4
20260508073542 12 320 4.8 6.4 0.00 0.00 0.00 37 1017.4
20260508073042 12 313 4.8 6.4 0.00 0.00 0.00 38 1017.4
20260508072542 12 323 3.2 6.4 0.00 0.00 0.00 39 1017.4
20260508072042 12 311 3.2 4.8 0.00 0.00 0.00 39 1017.5
20260508071542 12 322 3.2 4.8 0.00 0.00 0.00 39 1017.5
20260508071042 12 312 3.2 6.4 0.00 0.00 0.00 38 1017.6
20260508070542 12 330 3.2 6.4 0.00 0.00 0.00 38 1017.6
20260508070042 12 336 1.6 6.4 0.00 0.00 0.00 38 1017.5
20260508065542 12 355 3.2 4.8 0.00 0.00 0.00 39 1017.5
20260508065042 12 24 3.2 4.8 0.00 0.00 0.00 38 1017.5
20260508064542 12 6 1.6 4.8 0.00 0.00 0.00 38 1017.6
20260508064042 12 22 1.6 3.2 0.00 0.00 0.00 38 1017.6
20260508063542 12 29 0.0 3.2 0.00 0.00 0.00 37 1017.5
20260508063042 12 5 3.2 4.8 0.00 0.00 0.00 37 1017.5
20260508062542 13 17 3.2 4.8 0.00 0.00 0.00 37 1017.4
20260508062042 13 15 3.2 4.8 0.00 0.00 0.00 36 1017.4
20260508061542 13 5 1.6 4.8 0.00 0.00 0.00 36 1017.3
20260508061042 13 340 3.2 6.4 0.00 0.00 0.00 35 1017.3
20260508060542 14 330 4.8 8.0 0.00 0.00 0.00 34 1017.3
20260508060042 14 331 4.8 8.0 0.00 0.00 0.00 34 1017.2
20260508055542 14 328 6.4 6.4 0.00 0.00 0.00 34 1017.2
20260508055042 13 330 4.8 6.4 0.00 0.00 0.00 34 1017.2
20260508054542 14 313 4.8 4.8 0.00 0.00 0.00 33 1017.2
20260508054042 14 311 3.2 4.8 0.00 0.00 0.00 33 1017.2
20260508053542 15 299 1.6 6.4 0.00 0.00 0.00 32 1017.1
20260508053042 14 306 4.8 6.4 0.00 0.00 0.00 32 1017.1
20260508052542 14 319 3.2 6.4 0.00 0.00 0.00 32 1017.1
20260508052042 13 310 3.2 6.4 0.00 0.00 0.00 34 1017.1
20260508051542 13 324 4.8 6.4 0.00 0.00 0.00 34 1017.1
20260508051042 13 324 3.2 4.8 0.00 0.00 0.00 34 1017.2
20260508050542 13 324 3.2 4.8 0.00 0.00 0.00 35 1017.2
20260508050042 13 330 3.2 4.8 0.00 0.00 0.00 35 1017.2
20260508045542 13 338 1.6 4.8 0.00 0.00 0.00 35 1017.2
20260508045042 13 324 3.2 4.8 0.00 0.00 0.00 36 1017.2
20260508044542 13 316 3.2 4.8 0.00 0.00 0.00 35 1017.2
20260508044042 13 311 3.2 4.8 0.00 0.00 0.00 35 1017.2
20260508043542 13 316 4.8 4.8 0.00 0.00 0.00 34 1017.2
20260508043042 13 310 1.6 3.2 0.00 0.00 0.00 34 1017.3
20260508042542 13 302 1.6 4.8 0.00 0.00 0.00 34 1017.3
20260508042042 13 311 3.2 4.8 0.00 0.00 0.00 34 1017.3
20260508041542 13 309 3.2 4.8 0.00 0.00 0.00 34 1017.3
20260508041042 13 309 1.6 4.8 0.00 0.00 0.00 34 1017.3
20260508040542 13 309 3.2 4.8 0.00 0.00 0.00 34 1017.2
20260508040042 13 319 0.0 3.2 0.00 0.00 0.00 34 1017.2
20260508035542 14 318 0.0 3.2 0.00 0.00 0.00 33 1017.2
20260508035042 14 313 0.0 4.8 0.00 0.00 0.00 33 1017.1
20260508034542 14 335 3.2 4.8 0.00 0.00 0.00 33 1017.1
20260508034042 14 323 1.6 4.8 0.00 0.00 0.00 33 1017.1
20260508033543 14 316 3.2 4.8 0.00 0.00 0.00 32 1017.0
20260508033042 14 354 3.2 3.2 0.00 0.00 0.00 33 1017.0
20260508032542 14 23 1.6 3.2 0.00 0.00 0.00 33 1017.0
20260508032042 14 20 0.0 3.2 0.00 0.00 0.00 32 1017.0
20260508031542 15 31 0.0 4.8 0.00 0.00 0.00 32 1017.0
20260508031042 15 13 1.6 6.4 0.00 0.00 0.00 31 1016.9
20260508030542 15 325 0.0 6.4 0.00 0.00 0.00 31 1016.8
20260508030042 15 10 1.6 8.0 0.00 0.00 0.00 30 1016.8
20260508025542 16 319 6.4 8.0 0.00 0.00 0.00 30 1016.8
20260508025042 16 321 4.8 9.7 0.00 0.00 0.00 29 1016.8
20260508024542 16 329 6.4 9.7 0.00 0.00 0.00 30 1016.8
20260508024042 15 335 6.4 8.0 0.00 0.00 0.00 30 1016.8
20260508023542 16 313 4.8 6.4 0.00 0.00 0.00 32 1016.8
20260508023042 16 312 4.8 4.8 0.00 0.00 0.00 30 1016.7
20260508022542 16 311 1.6 4.8 0.00 0.00 0.00 30 1016.7
20260508022042 16 307 1.6 4.8 0.00 0.00 0.00 29 1016.7
20260508021542 16 297 0.0 8.0 0.00 0.00 0.00 29 1016.6
20260508021042 17 321 4.8 8.0 0.00 0.00 0.00 28 1016.6
20260508020542 17 323 4.8 8.0 0.00 0.00 0.00 27 1016.6
20260508020042 17 328 3.2 9.7 0.00 0.00 0.00 27 1016.6
20260508015542 17 326 6.4 11.3 0.00 0.00 0.00 27 1016.6
20260508015042 17 312 6.4 11.3 0.00 0.00 0.00 27 1016.6
20260508014542 17 319 1.6 8.0 0.00 0.00 0.00 27 1016.6
20260508014042 17 341 6.4 9.7 0.00 0.00 0.00 27 1016.6
20260508013542 17 295 4.8 9.7 0.00 0.00 0.00 27 1016.6
20260508013042 17 356 0.0 6.4 0.00 0.00 0.00 26 1016.6
20260508012542 17 7 3.2 6.4 0.00 0.00 0.00 27 1016.6
20260508012042 17 38 4.8 6.4 0.00 0.00 0.00 27 1016.7
20260508011542 17 28 0.0 6.4 0.00 0.00 0.00 27 1016.7
20260508011042 17 26 4.8 6.4 0.00 0.00 0.00 27 1016.7
20260508010542 17 331 0.0 8.0 0.00 0.00 0.00 27 1016.8
20260508010042 17 42 4.8 8.0 0.00 0.00 0.00 27 1016.8
20260508005542 17 351 1.6 6.4 0.00 0.00 0.00 28 1016.9
20260508005042 17 332 1.6 4.8 0.00 0.00 0.00 28 1016.9
20260508004542 17 11 0.0 4.8 0.00 0.00 0.00 28 1016.9
20260508004042 17 339 1.6 8.0 0.00 0.00 0.00 28 1016.9
20260508003542 17 353 4.8 8.0 0.00 0.00 0.00 28 1016.9
20260508003042 17 346 1.6 6.4 0.00 0.00 0.00 27 1016.9
20260508002542 17 342 3.2 8.0 0.00 0.00 0.00 28 1016.9
20260508002042 17 41 4.8 9.7 0.00 0.00 0.00 27 1017.0
20260508001042 18 20 6.4 17.7 0.00 0.00 0.00 26 1017.1
20260508000542 18 337 4.8 17.7 0.00 0.00 0.00 28 1017.1
20260508000042 18 289 9.7 14.5 0.00 0.00 0.00 27 1017.1
20260507235542 18 319 6.4 16.1 0.00 0.00 0.00 27 1017.1
20260507235042 19 318 12.9 16.1 0.00 0.00 0.00 27 1017.1
20260507234543 20 329 4.8 12.9 0.00 0.00 0.00 26 1017.1
20260507234042 19 31 8.0 17.7 0.00 0.00 0.00 27 1017.1
20260507233542 19 22 4.8 19.3 0.00 0.00 0.00 26 1017.2
20260507232542 20 311 16.1 20.9 0.00 0.00 0.00 25 1017.3
20260507232042 20 315 11.3 20.9 0.00 0.00 0.00 26 1017.3
20260507231542 19 298 8.0 19.3 0.00 0.00 0.00 26 1017.3
20260507231043 19 339 11.3 24.1 0.00 0.00 0.00 26 1017.3
20260507230543 19 344 6.4 24.1 0.00 0.00 0.00 26 1017.3
20260507230042 20 1 14.5 22.5 0.00 0.00 0.00 26 1017.3
20260507225542 19 340 12.9 19.3 0.00 0.00 0.00 25 1017.4
20260507225042 19 343 6.4 20.9 0.00 0.00 0.00 26 1017.5
20260507224542 20 342 11.3 20.9 0.00 0.00 0.00 25 1017.5
20260507224042 20 18 6.4 17.7 0.00 0.00 0.00 26 1017.5
20260507223542 20 304 9.7 19.3 0.00 0.00 0.00 26 1017.7
20260507223042 20 334 11.3 19.3 0.00 0.00 0.00 25 1017.7
20260507222542 20 338 11.3 19.3 0.00 0.00 0.00 26 1017.7
20260507222042 19 346 8.0 20.9 0.00 0.00 0.00 25 1017.8
20260507221542 20 344 14.5 20.9 0.00 0.00 0.00 24 1017.8
20260507221042 19 358 9.7 19.3 0.00 0.00 0.00 27 1017.8
20260507220542 19 338 8.0 17.7 0.00 0.00 0.00 24 1017.8
20260507220042 20 333 6.4 19.3 0.00 0.00 0.00 26 1017.9
20260507215542 20 349 9.7 19.3 0.00 0.00 0.00 24 1018.0
20260507215042 21 324 9.7 19.3 0.00 0.00 0.00 24 1018.0
20260507214542 21 316 14.5 19.3 0.00 0.00 0.00 26 1018.0
20260507214042 20 291 3.2 9.7 0.00 0.00 0.00 25 1018.1
20260507213542 20 315 4.8 17.7 0.00 0.00 0.00 25 1018.2
20260507213042 20 332 6.4 22.5 0.00 0.00 0.00 23 1018.3
20260507212542 20 322 12.9 22.5 0.00 0.00 0.00 23 1018.3
20260507212042 21 261 0.0 14.5 0.00 0.00 0.00 22 1018.3
20260507211542 21 230 6.4 14.5 0.00 0.00 0.00 26 1018.4
20260507211042 21 274 1.6 17.7 0.00 0.00 0.00 23 1018.5
20260507210542 20 257 14.5 17.7 0.00 0.00 0.00 26 1018.5
20260507210042 20 249 3.2 12.9 0.00 0.00 0.00 26 1018.6
20260507205542 20 210 1.6 12.9 0.00 0.00 0.00 24 1018.6
20260507205042 20 175 4.8 14.5 0.00 0.00 0.00 27 1018.6
20260507204542 20 36 6.4 14.5 0.00 0.00 0.00 22 1018.7
20260507204042 20 350 3.2 11.3 0.00 0.00 0.00 23 1018.7
20260507203542 20 36 3.2 11.3 0.00 0.00 0.00 23 1018.7